Flag for Poland Weather past 2 weeks in Opole, Poland

Now
81 °F

Passing clouds.


Feels Like: 81 °F
Forecast: 66 / 81 °F
Wind: 15 mph from Northeast

Location: Wroclaw Ii

Current Time: Jul 22, 2014 at 11:47:05 AM

Latest Report: Jul 22, 2014 at 11:00 AM


Visibility: N/A

Pressure: 29.95 "Hg

Humidity: 42%

Dew point: 55 °F

Location of OpoleLocation

Historic Weather in Opole — Graph

°F

Opole temperature yesterday

Maximum temperature yesterday: 86 °F (at 1:00 PM)
Minimum temperature yesterday: 68 °F (at 4:00 AM)
Average temperature yesterday: 78 °F

Past Weeks' High & Low Weather Summary

 TemperatureHumidityPressure
High93 °F (Jul 20, 5:00 PM)94% (Jul 8, 2:00 AM)30.18 "Hg (Jul 8, 2:00 AM)
Low55 °F (Jul 13, 2:30 AM)26% (Jul 20, 6:00 PM)29.59 "Hg (Jul 9, 5:00 AM)
Average73 °F67%29.91 "Hg
* Reported Jul 7 11:00 AM — Jul 22 11:00 AM, Opole, Weather by CustomWeather, © 2014

Note: Actual official high and low records may vary slightly from our data, if they occured in-between our weather recording intervals... More about our weather records

Advertising

Opole weather history for previous 24 hours

 ConditionsComfort  
Time TempWeatherWind HumidityBarometerVisibility
11:00 AM
Jul 22
81 °FPassing clouds.15 mph42%29.95 "HgN/A
10:30 AM81 °FPassing clouds.14 mph45%29.95 "HgN/A
10:00 AM79 °FSunny.14 mph48%29.95 "Hg10 mi
9:30 AM79 °FPassing clouds.13 mph45%29.92 "HgN/A
9:00 AM77 °FSunny.9 mph51%29.92 "Hg10 mi
8:30 AM75 °FSunny.9 mph54%29.92 "Hg10 mi
8:00 AM73 °FSunny.8 mph57%29.92 "Hg10 mi
7:30 AM72 °FSunny.9 mph61%29.92 "Hg10 mi
7:00 AM70 °FSunny.7 mph60%29.92 "Hg10 mi
6:30 AM70 °FPassing clouds.7 mph60%29.92 "HgN/A
6:00 AM68 °FPassing clouds.5 mph64%29.92 "HgN/A
5:30 AM68 °FClear.6 mph64%29.89 "Hg10 mi
5:00 AM68 °FClear.7 mph64%29.89 "Hg10 mi
4:30 AM70 °FClear.7 mph60%29.89 "Hg10 mi
4:00 AM72 °FClear.8 mph61%29.89 "Hg10 mi
3:30 AM72 °FClear.8 mph61%29.89 "Hg10 mi
3:00 AM73 °FClear.8 mph61%29.89 "Hg10 mi
2:30 AM73 °FClear.8 mph61%29.89 "Hg10 mi
2:00 AM75 °FClear.9 mph61%29.89 "Hg10 mi
1:30 AM75 °FPassing clouds.9 mph61%29.89 "HgN/A
1:00 AM73 °FPassing clouds.7 mph69%29.89 "HgN/A
12:30 AM75 °FPassing clouds.8 mph65%29.89 "HgN/A
12:00 AM75 °FPassing clouds.8 mph69%29.86 "HgN/A
11:30 PM
Jul 21
77 °FThundershowers. Passing clouds.12 mph61%29.86 "HgN/A
11:00 PM77 °FThundershowers. Passing clouds.9 mph61%29.86 "HgN/A
10:30 PM77 °FThundershowers. Passing clouds.10 mph61%29.86 "HgN/A
10:00 PM79 °FPassing clouds.9 mph61%29.86 "HgN/A
9:30 PM79 °FSprinkles. Scattered clouds.13 mph58%29.86 "HgN/A
9:00 PM81 °FPassing clouds.12 mph51%29.83 "HgN/A
8:30 PM81 °FSunny.10 mph51%29.83 "Hg10 mi
8:00 PM81 °FSunny.8 mph54%29.83 "Hg10 mi
7:30 PM82 °FSunny.12 mph55%29.83 "Hg10 mi
7:00 PM82 °FSunny.16 mph55%29.83 "Hg10 mi
6:30 PM82 °FPassing clouds.16 mph55%29.83 "HgN/A
6:00 PM82 °FSunny.14 mph58%29.83 "Hg10 mi
5:30 PM84 °FSunny.16 mph55%29.80 "Hg10 mi
5:00 PM86 °FPassing clouds.15 mph52%29.80 "HgN/A
4:30 PM86 °FPassing clouds.16 mph52%29.80 "HgN/A
4:00 PM86 °FPassing clouds.10 mph49%29.80 "HgN/A
3:30 PM84 °FSunny.12 mph55%29.80 "Hg10 mi
3:00 PM86 °FSunny.10 mph52%29.80 "Hg10 mi
2:30 PM86 °FSunny.10 mph52%29.80 "Hg10 mi
2:00 PM84 °FSunny.9 mph55%29.80 "Hg10 mi
1:30 PM86 °FPassing clouds.7 mph52%29.80 "HgN/A
1:00 PM86 °FPassing clouds.9 mph52%29.80 "HgN/A
12:30 PM84 °FPassing clouds.7 mph55%29.80 "HgN/A
12:00 PM84 °FSunny.8 mph58%29.80 "Hg10 mi
11:30 AM82 °FPassing clouds.9 mph58%29.80 "HgN/A
11:00 AM81 °FPassing clouds.7 mph62%29.80 "HgN/A
Weather by CustomWeather, © 2014

See weather overviewHow to use our weather pages